Regional Weather Roundup
Issued by NWS Jackson, KY

Home | Current Version | Previous Version | Graphics & Text | Print | Product List | Glossary On
Versions: 1 2 3 4 5 6 7 8 9 10 11 12 13 14 15 16 17 18 19 20 21 22 23 24 25 26 27 28 29 30 31 32 33 34 35 36 37 38 39 40 41 42 43 44 45 46 47 48 49 50
000
ASUS43 KJKL 031810
RWRJKL

EAST KENTUCKY HOURLY WEATHER ROUNDUP
NATIONAL WEATHER SERVICE JACKSON KY
200 PM EDT SUN MAY 03 2015

NOTE: "FAIR" INDICATES FEW OR NO CLOUDS BELOW 12,000 FEET WITH
NO SIGNIFICANT WEATHER AND/OR OBSTRUCTIONS TO VISIBILITY.

* THESE REPORTS ARE NOT UNDER NWS QUALITY CONTROL AND MAY NOT
  REPORT WEATHER SUCH AS PRECIPITATION AND FOG.

KYZ079-080-083-085-087-088-110-112-115-119-120-031900
...EASTERN KENTUCKY...

CITY           SKY/WX    TMP DP  RH WIND       PRES   REMARKS
JACKSON        PTSUNNY   75  41  29 VRB3      30.16F
6HR MIN TEMP:  53; 6HR MAX TEMP:  75;

LONDON         MOSUNNY   74  39  28 S5        30.15F
6HR MIN TEMP:  47; 6HR MAX TEMP:  77;

SOMERSET*      PTSUNNY   73  43  33 CALM      30.15F
MONTICELLO*    MOSUNNY   78  45  31 W8        30.17F
6HR MIN TEMP:  49; 6HR MAX TEMP:  78;

MIDDLESBORO*   MOSUNNY   75  42  30 S6        30.16F
6HR MIN TEMP:  43; 6HR MAX TEMP:  76;

HARLAN APT*    CLEAR     73  36  25 N5        30.17S
HAZARD APT*    CLEAR     75  41  29 CALM      30.15F
BLACK MTN*       N/A     64  36  34 S3          N/A
PIKEVILLE APT* SUNNY     70  37  30 CALM      30.16F
BIG SANDY*     CLEAR     75  39  27 S3        30.16F
6HR MIN TEMP:  53; 6HR MAX TEMP:  76;

MOREHEAD APT*  CLEAR     73  39  29 CALM      30.16F
$$

KYZ035-036-041-042-044-050-067-078-099-031900
...CENTRAL KENTUCKY...

CITY           SKY/WX    TMP DP  RH WIND       PRES   REMARKS
MT STERLING*   MOSUNNY   73  46  38 W7        30.16F
FLEMING/MASON* MOSUNNY   75  46  35 S12G17    30.15F
DANVILLE*      MOSUNNY   77  45  31 SW10G17   30.15F
RICHMOND*      MOSUNNY   75  45  33 SW8G17    30.14F
LEXINGTON      PTSUNNY   75  45  34 CALM      30.14F
6HR MIN TEMP:  53; 6HR MAX TEMP:  76;

FRANKFORT      CLOUDY    74  45  35 S6        30.12F
6HR MIN TEMP:  51; 6HR MAX TEMP:  75;

$$

KYZ091>093-OHZ055-061-077-WVZ005-015-034-035-042-031900
...SOUTHERN OHIO/WEST VIRGINIA...

CITY           SKY/WX    TMP DP  RH WIND       PRES   REMARKS
COVINGTON      MOSUNNY   75  50  41 S8        30.12F
COLUMBUS       PTSUNNY   75  45  34 SW9G23    30.11F
DAYTON         MOSUNNY   75  47  36 SW13G21   30.12F
WILMINGTON     MOSUNNY   74  46  36 SW13      30.12F
HUNTINGTON     SUNNY     74  38  27 CALM      30.14F
CHARLESTON     PTSUNNY   77  38  24 W8        30.14F
PINEVILLE*     PTSUNNY   75  39  27 MISG      30.22F
BECKLEY        PTSUNNY   68  32  26 VRB5      30.20F
BLUEFIELD      CLOUDY    69  31  24 CALM      30.21F
$$

VAZ002-007-008-TNZ017-027-036-066-071-031900
...SOUTHWEST VIRGINIA/EAST TENNESSEE...

CITY           SKY/WX    TMP DP  RH WIND       PRES   REMARKS
WISE*          SUNNY     70  36  28 CALM      30.21F
JONESVILLE*    CLEAR     75  39  27 SW5       30.19F
ABINGDON*      SUNNY     74  38  27 S8        30.18F
BRISTOL        MOSUNNY   75  40  28 SW9       30.17F
KNOXVILLE      MOSUNNY   75  43  31 VRB5      30.16F
OAK RIDGE      SUNNY     78  47  33 VRB5      30.17F
CROSSVILLE     MOSUNNY   73  42  32 S9        30.18F
NASHVILLE      PTSUNNY   76  48  37 S9        30.14F
$$

...KEY TO REMARKS...
VSB - VISIBILITY IN MILES
WCI - WIND CHILL INDEX
HX  - HEAT INDEX

$$


USA.gov is the U.S. government's official web portal to all federal, state and local government web resources and services.